Regional Weather Roundup
Issued by NWS Newport/Morehead, NC

Current Version | Previous Version | Text Only | Print | Product List | Glossary Off
Versions: 1 2 3 4 5 6 7 8 9 10 11 12 13 14 15 16 17 18 19 20 21 22 23 24 25 26 27 28 29 30 31 32 33 34 35 36 37 38 39 40 41 42 43 44 45 46 47 48 49 50
000 ASUS42 KMHX 300712 RWRMHX WEATHER ROUNDUP FOR EASTERN NORTH CAROLINA NATIONAL WEATHER SERVICE NEWPORT/MOREHEAD CITY NC 300 AM EDT MON MAR 30 2015 NOTE: "FAIR" INDICATES FEW OR NO CLOUDS BELOW 12,000 FEET WITH NO SIGNIFICANT WEATHER AND/OR OBSTRUCTIONS TO VISIBILITY NCZ015>017-031-032-045>047-102-103-300800- NORTH COAST CITY SKY/WX TMP DP RH WIND PRES REMARKS EDENTON PTCLDY 41 28 58 SW13 30.21F ELIZABETH CITY MOCLDY 41 26 55 S9 30.21F KITTY HAWK MOSUNNY 41 25 53 SW7 30.20F MANTEO PTCLDY 42 27 55 SW15 30.23F $$ NCZ045>047-081-094-103-104-300800- CENTRAL COAST CITY SKY/WX TMP DP RH WIND PRES REMARKS FRISCO CLEAR 41 24 51 W8 30.25F SWANQUARTER N/A 45 N/A N/A SW12G18 30.18F $$ NCZ095-097-098-100-101-300800- SOUTHERN COAST CITY SKY/WX TMP DP RH WIND PRES REMARKS BEAUFORT CLEAR 45 32 60 SW8 30.24F CEDAR ISLAND N/A 41 N/A N/A S5 30.30S JACKSONVILLE CLEAR 39 28 64 SW5 30.24F PINEY ISLAND SUNNY N/A N/A N/A S6 30.24F WILMINGTON CLEAR 35 31 85 CALM 30.24F $$ NCZ011>013-027>030-043-044-078>080-089-090>093-098-300800- COASTAL PLAIN CITY SKY/WX TMP DP RH WIND PRES REMARKS AHOSKIE CLEAR 33 20 58 S6 30.17F CLINTON PTCLDY 37 29 73 CALM 30.23F ELIZABETHTOWN CLEAR 38 30 74 S3 30.23F GOLDSBORO MOCLDY 39 31 74 S5 30.19F GREENVILLE PTCLDY 37 23 56 S9 30.21F HAVELOCK CLEAR 32 26 78 CALM 30.25F KENANSVILLE CLEAR 35 28 75 CALM 30.23F KINSTON CLEAR 37 27 65 S5 30.22F NEW BERN CLEAR 36 29 75 S5 30.25F RICHLANDS CLEAR 30 25 80 SW5 30.24F ROCKY MOUNT CLEAR 38 21 50 S8 30.18F WASHINGTON PTCLDY 37 26 62 SW5 30.22F WHITEVILLE CLEAR 38 31 76 SW3 30.24F $$ AMZ130-135-150-152-154-156-158-170-250-252-270-ANZ085-086-088-633-658-670-300800- MARINE OBSERVATIONS STATION/POSITION TIME TEMP WIND PRES WAVE SWELL AIR SEA DIR/SP/G HT/PER HT/PER (UTC) (F) (DEG/KT/KT) (MB) (FT/S) (FT/S) CHESAPEAKE LIGHT 0600 40 190/ 16/ 18 1022.9 64 E VA BEACH 0650 45 53 220/ 16/ 19 1022.2 5/10 5/10 DUCK 0618 43 42 190/ 12/ 15 1022.3 2 E DUCK 0611 42 N/A 3/10 2/11 10 NE DUCK NOT AVBL OREGON INLET 0624 44 44 200/ 11/ 12 1023.9 HATTERAS CG 0606 45 50 250/ 7/ 11 1025.1 CAPE LOOKOUT 0700 48 230/ 7/ 9 1024.0 BEAUFORT LAB 0606 48 53 230/ 5/ 9 1024.1 27 SE WRIGHTSVLE 0600 48 64 220/ 8/ 12 1026.2 5 SE WRIGHTSVLE 0600 51 55 210/ 12/ 14 1024.8 225 S CAPE HAT 0650 53 67 CALM / 2 1025.8 6/ 8 5/ 8 41 SE CHARLESTON 0650 57 69 220/ 12/ 16 1024.6 3/ 9 2/ 9 $$

USA.gov is the U.S. government's official web portal to all federal, state and local government web resources and services.